Simultaneous Nadir Overpasses (SNOs) Predictions

Prediction of SNOs between AURA and NPP Satellite Orbit:

Table of predicted SNOs for the next 14.0 days since TLE Epoch: 9/1/2017
Index Date (AURA) Time (AURA) Lat,Lon (AURA) SZA (AURA ) Date (NPP) Time (NPP) Lat,Lon (NPP) SZA (NPP ) Distance(km) Time Diff (sec)
1 09/03/2017 02:51:48 79.20, 31.79 85.44 09/03/2017 02:51:14 79.20, 31.84 85.45 1.12 34
2 09/03/2017 03:41:09 -79.43,-159.04 94.89 09/03/2017 03:41:53 -79.43,-159.13 94.91 1.81 44
3 09/05/2017 19:08:13 79.34, 148.56 86.18 09/05/2017 19:08:07 79.35, 148.69 86.15 3.07 6
4 09/05/2017 19:57:34 -79.57, -42.23 94.15 09/05/2017 19:58:46 -79.56, -42.23 94.20 0.24 72
5 09/08/2017 10:35:20 -79.16, 95.65 92.65 09/08/2017 10:34:25 -79.17, 95.79 92.63 3.04 55
6 09/08/2017 11:24:40 79.39, -95.22 87.05 09/08/2017 11:25:03 79.38, -95.24 87.03 0.62 23
7 09/11/2017 02:51:46 -79.21,-148.15 91.76 09/11/2017 02:51:20 -79.21,-148.16 91.74 0.18 26
8 09/11/2017 03:41:03 79.55, 21.76 87.77 09/11/2017 03:41:54 79.55, 21.90 87.71 2.89 51
9 09/13/2017 18:19:36 77.07, 149.77 91.88 09/13/2017 18:18:22 77.22, 149.15 92.00 22.38 74




NCC Satellite Simultaneous Nadir Overpasses (SNOs) Prediction Service
